Showing default

GRUS-3ALPHA, 64579

Orbit data source: Space-Track

GRUS-3ALPHA, 64579 is a payload satellite owned by AXELSPACE (JP) in SSO that was launched on Mon, 23 Jun 2025 UTC via an FALCON 9 launch vehicle from the Air Force Western Test Range (AFWTR). Payload-class satellites include a variety of spacecraft equipped with specific instruments for various scientific and technological missions. These include communications satellites like Starlink; space stations such as the ISS; scientific satellites like the Hubble; Earth observation satellites from companies like Planet Labs, Umbra, and HawkEye 360; GPS; miniature CubeSats for education and research; and military/defense satellites.

Loading next visibility...
Identifier
64579, 2025-135BD
Orbit
SSO
Country
Flag of JPJP / JPN
Related business
Manufacturer
AXELSPACE
Mission
Operational Commercial Imaging
Bus & Motor
GRUS, Unknown motor
Mass
150 kg wet, 150 kg dry
Launch date (UTC)
2025-06-23 (1 year ago)
Launch vehicle
FALCON 9
Launch site
Air Force Western Test Range (AFWTR)
Object type
Payload
Rocket body
Debris
Shape & HBR
Box, 1.0 m
Radar Cross Section
1.360 m², Medium (>0.1 m² and < 1m²)

Expand to show TLE details & history
Last TLE update: 10 hours ago

TLE from 10 hours ago
0 GRUS-3ALPHA
1 64579U 25135BD  26198.71536338  .00000615  00000-0  64314-4 0  9993
2 64579  97.7791 312.6381 0001683 233.5610 126.5454 14.93191731 58431
Epoch: 2026-07-17T17:10Z
TLE epoch observation values (Epoch: 2026-07-17T17:10:07.396Z)
Latitude
-0.00004°
Longitude
119.5688°
Altitude
591.733 km
Speed
7.564 km/s
True Right ascension
20h 50m 33s
True Declination
0° 00' 00"
Sunlit
Object was in full shadow at epoch
Visualization orbit readout
Latitude
Unknown
Longitude
Unknown
Altitude
Unknown
Speed
Unknown
Apparent Right ascension
Unknown
Apparent Declination
Unknown
Sunlit
N/A
Visualization observer readout
Local Sidereal Time
15:53:12
Azimuth
Unknown
Elevation
Unknown
Doppler factor
Unknown
Orbital elements
Apogee altitude
586.181 km
Perigee altitude
583.837 km
Semi-major axis
6,963.146 km
Eccentricity
0.00017
Inclination
97.7791°
RAAN
312.6381°
Arg. of periapsis
233.561°
True anomaly
126.56089°
Mean anomaly
126.5454°
Eccentric anomaly
126.55315°
Mean motion
3.73538 °/min
Orbital period
96.38 mins
BSTAR
0.000064314
Loading maneuver chart data...
Computing Atmospheric mass density...
Loading historical data...
Loading historical data...
Loading historical data...
Loading historical data...
Loading historical data...
Loading historical data...
Loading historical data...

Documentation

Showing up to 5 results
|